Location: Eschentzwiller
(47.7125°N, 7.3981°E)
Time: 23:34:59
(UTC+00:00)

Cosmos 1745 Rocket - Pass Details

Date: 27 October 2020
Orbit: 953 x 997 km, 83.0° (Epoch: 26 November)

Event Time Altitude Azimuth Distance (km) Brightness Sun altitude
Rises 17:16:04 0° 356° (N) 3,689 7.0 -10.0°
Reaches altitude 10° 17:18:48 10° 4° (N) 2,744 6.2 -10.4°
Maximum altitude 17:24:38 39° 72° (ENE) 1,454 4.5 -11.4°
Drops below altitude 10° 17:30:29 10° 140° (SE) 2,752 6.0 -12.4°
Sets 17:33:12 0° 148° (SSE) 3,700 6.8 -12.8°
